FW2360 Weather Reports


time (UTC)temp
C
wind
direction
speed
KPH
gust
KPH
rain 1hr
cm
rain 24hr
cm
rain mn
cm
humidity
%
barometer
mb
20260503203032 17 113 3.2 14.5 0.00 0.00 0.00 28 1016.3
20260503201530 17 360 3.2 12.9 0.00 0.00 0.00 31 1016.2
20260503200033 17 277 4.8 14.5 0.00 0.00 0.00 30 1016.6
20260503194535 17 256 1.6 11.3 0.00 0.00 0.00 29 1016.7
20260503193042 17 308 4.8 14.5 0.00 0.00 0.00 30 1017.1
20260503191532 16 11 1.6 17.7 0.00 0.00 0.00 35 1017.2
20260503190035 16 107 3.2 12.9 0.00 0.00 0.00 30 1017.6
20260503184537 16 126 6.4 14.5 0.00 0.00 0.00 31 1017.8
20260503183035 16 290 3.2 12.9 0.00 0.00 0.00 34 1018.1
20260503181533 15 49 3.2 9.7 0.00 0.00 0.00 37 1018.1
20260503180041 15 0 0.0 12.9 0.00 0.00 0.00 35 1018.3
20260503174534 15 24 1.6 12.9 0.00 0.00 0.00 36 1018.6
20260503173056 15 313 1.6 20.9 0.00 0.00 0.00 33 1018.6
20260503171532 14 0 1.6 11.3 0.00 0.00 0.00 36 1018.7
20260503081532 5 0 0.0 3.2 0.00 0.00 0.00 76 1017.0
20260503071534 6 0 0.0 0.0 0.00 0.00 0.00 67 1016.3
20260503054536 8 0 0.0 0.0 0.00 0.00 0.00 59 1015.9
20260503053035 8 0 0.0 0.0 0.00 0.00 0.00 57 1015.8
20260503051528 9 0 0.0 4.8 0.00 0.00 0.00 55 1015.7
20260503050030 10 275 0.0 4.8 0.00 0.00 0.00 54 1015.7
20260503044530 10 0 0.0 3.2 0.00 0.00 0.00 52 1015.6
20260503043033 10 277 0.0 3.2 0.00 0.00 0.00 49 1015.6
20260503041532 11 277 0.0 3.2 0.00 0.00 0.00 49 1015.5
20260503040039 11 0 0.0 3.2 0.00 0.00 0.00 47 1015.5
20260503034543 11 0 0.0 0.0 0.00 0.00 0.00 47 1015.4
20260503033038 11 272 0.0 4.8 0.00 0.00 0.00 47 1015.4
20260503031538 11 265 0.0 4.8 0.00 0.00 0.00 45 1015.3
20260503030038 11 0 0.0 4.8 0.00 0.00 0.00 48 1015.3
20260503024529 11 0 0.0 0.0 0.00 0.00 0.00 50 1015.2
20260503023032 11 0 0.0 0.0 0.00 0.00 0.00 49 1015.4
20260503021540 11 0 0.0 0.0 0.00 0.00 0.00 51 1015.2
20260503020030 12 0 0.0 0.0 0.00 0.00 0.00 51 1015.3
20260503014532 12 0 0.0 1.6 0.00 0.00 0.00 48 1015.2
20260503013032 12 0 0.0 3.2 0.00 0.00 0.00 47 1015.2
20260503011529 12 0 0.0 3.2 0.00 0.00 0.00 46 1014.9
20260503010031 12 0 0.0 1.6 0.00 0.00 0.00 51 1014.7
20260503004555 12 246 0.0 1.6 0.00 0.00 0.00 47 1014.4
20260503003030 12 0 0.0 0.0 0.00 0.00 0.00 49 1014.3
20260503001532 12 0 0.0 0.0 0.00 0.00 0.00 47 1014.1
20260503000033 13 0 0.0 1.6 0.00 0.00 0.00 47 1013.8
20260502234531 13 0 0.0 3.2 0.00 0.00 0.00 47 1013.7
20260502233031 13 0 0.0 6.4 0.00 0.00 0.00 49 1013.5
20260502231532 13 255 0.0 3.2 0.00 0.00 0.00 47 1013.3
20260502230030 13 0 0.0 3.2 0.00 0.00 0.00 50 1013.2
20260502224532 13 0 0.0 3.2 0.00 0.00 0.00 50 1013.2
20260502223035 14 0 0.0 0.0 0.00 0.00 0.00 48 1012.9
20260502221529 14 0 0.0 1.6 0.00 0.00 0.00 52 1012.8
20260502220036 15 0 0.0 1.6 0.00 0.00 0.00 48 1012.7
20260502214535 15 0 0.0 3.2 0.00 0.00 0.00 47 1012.7
20260502213032 15 49 0.0 4.8 0.00 0.00 0.00 49 1012.5
20260502211543 15 49 0.0 4.8 0.00 0.00 0.00 46 1012.5
20260502210031 15 253 0.0 3.2 0.00 0.00 0.00 42 1012.3
20260502204531 15 69 1.6 4.8 0.00 0.00 0.00 43 1012.5